logo tempoitalia

Diretta Meteo Napoli-Capodichino, Italiasabato 31 luglio ore 20:50

Mappa
Sereno 28 °C Sereno 24 Ore: T.min 23 T.max 33
Ponente Sud-Ovest Km/h 7.4 Punto di rugiada: 21 °C Umidità: 65% Visibilità: 10 Km
Il sole sorge alle: 05:56 Il sole tramonta alle: 20:21
31 Luglio 2021 20:50 tempo osservato: Sereno Sereno 28 65 1010 vento: Nord SO 7.4
31 Luglio 2021 20:20 tempo osservato: Sereno Sereno 29 48 1010 vento: Nord SO 7.4
31 Luglio 2021 19:50 tempo osservato: Sereno Sereno 29 51 1010 vento: Nord SO 9.3
31 Luglio 2021 19:20 tempo osservato: Sereno Sereno 31 43 1010 vento: Nord S 7.4
31 Luglio 2021 18:50 tempo osservato: Sereno Sereno 32 40 1010 vento: Nord SO 7.4
31 Luglio 2021 18:20 tempo osservato: Sereno Sereno 32 35 1010 vento: Nord O/SO 9.3
31 Luglio 2021 17:50 tempo osservato: Sereno Sereno 32 38 1010 vento: Nord SO 13
31 Luglio 2021 17:20 tempo osservato: Sereno Sereno 32 43 1011 vento: Nord SO 13
31 Luglio 2021 16:50 tempo osservato: Sereno Sereno 32 43 1011 vento: Nord O/SO 18.5
31 Luglio 2021 16:20 tempo osservato: Sereno Sereno 33 27 1011 vento: Nord O/SO 16.7
31 Luglio 2021 15:50 tempo osservato: Sereno Sereno 33 29 1011 vento: Nord O/SO 18.5
31 Luglio 2021 15:20 tempo osservato: Sereno Sereno 33 31 1011 vento: Nord O/SO 20.3
31 Luglio 2021 14:50 tempo osservato: Sereno Sereno 33 33 1011 vento: Nord SO 14.8
31 Luglio 2021 14:20 tempo osservato: Sereno Sereno 33 31 1011 vento: Nord O/SO 16.7
31 Luglio 2021 13:50 tempo osservato: Sereno Sereno 33 29 1011 vento: Nord SO 16.7
31 Luglio 2021 13:20 tempo osservato: Sereno Sereno 33 31 1011 vento: Nord SO 14.8
31 Luglio 2021 12:20 tempo osservato: Sereno Sereno 32 33 1012 vento: Nord O 14.8
31 Luglio 2021 11:50 tempo osservato: Sereno Sereno 32 35 1012 vento: Nord SO 9.3
31 Luglio 2021 11:20 tempo osservato: Sereno Sereno 32 33 1012 vento: Nord SO 9.3
31 Luglio 2021 10:50 tempo osservato: Sereno Sereno 32 35 1012 vento: Nord O 11.1
31 Luglio 2021 10:20 tempo osservato: Sereno Sereno 31 45 1012 vento: Nord N 3.7
31 Luglio 2021 09:50 tempo osservato: Sereno Sereno 30 48 1012 vento: Nord N 3.7
31 Luglio 2021 09:20 tempo osservato: Sereno Sereno 29 51 1012 vento: Nord E/SE 7.4
31 Luglio 2021 08:50 tempo osservato: Sereno Sereno 28 54 1012 vento: Nord E 9.3
31 Luglio 2021 08:20 tempo osservato: Sereno Sereno 27 61 1012 vento: Nord N 5.5
31 Luglio 2021 07:50 tempo osservato: Sereno Sereno 27 61 1012 vento: Nord N 5.5
31 Luglio 2021 07:20 tempo osservato: Sereno Sereno 25 73 1012 vento: Nord O/NO 9.3
31 Luglio 2021 06:50 tempo osservato: Sereno Sereno 24 73 1011 vento: Nord O/NO 9.3
31 Luglio 2021 05:50 tempo osservato: Sereno Sereno 24 69 1011 vento: Nord N 5.5
31 Luglio 2021 05:20 tempo osservato: Sereno Sereno 23 73 1011 vento: Nord N 5.5
31 Luglio 2021 04:50 tempo osservato: Sereno Sereno 24 69 1011 vento: Nord N 5.5
31 Luglio 2021 04:20 tempo osservato: Sereno Sereno 24 78 1011 vento: Nord N 3.7
31 Luglio 2021 03:50 tempo osservato: Sereno Sereno 25 83 1011 vento: Nord N 5.5
31 Luglio 2021 03:20 tempo osservato: Sereno Sereno 24 88 1012 vento: Nord N 3.7
31 Luglio 2021 02:50 tempo osservato: Sereno Sereno 25 83 1011 vento: Nord N 1.8
31 Luglio 2021 02:20 tempo osservato: Sereno Sereno 25 83 1012 vento: Nord N 1.8
31 Luglio 2021 01:50 tempo osservato: Sereno Sereno 25 78 1012 vento: Nord N 1.8
31 Luglio 2021 01:20 tempo osservato: Sereno Sereno 26 73 1012 vento: Nord N 3.7
31 Luglio 2021 00:50 tempo osservato: Sereno Sereno 26 78 1012 vento: Nord N 3.7
31 Luglio 2021 00:20 tempo osservato: Sereno Sereno 26 78 1012 vento: Nord N 3.7
30 Luglio 2021 23:50 tempo osservato: Sereno Sereno 27 78 1012 vento: Nord N 3.7
30 Luglio 2021 23:20 tempo osservato: Sereno Sereno 27 78 1012 vento: Nord N 7.4
30 Luglio 2021 22:50 tempo osservato: Sereno Sereno 27 74 1012 vento: Nord N 7.4
30 Luglio 2021 22:20 tempo osservato: Sereno Sereno 28 61 1012 vento: Nord N/NO 7.4
30 Luglio 2021 21:50 tempo osservato: Sereno Sereno 28 54 1012 vento: Nord N 3.7